Harrisburg, IL

12:14 PM CDT on July 27, 2017 (GMT -0500)
Harrisburg-Raleigh

Weather History for KHSB - January, 2014

Change the Weather History Date:

Saturday, January 11, 2014

  Actual Average (KMWA) Record (KMWA)
Temperature  
Mean Temperature 42 °F -  
Max Temperature 50 °F 33 °F 68 °F (2017)
Min Temperature 34 °F 16 °F -18 °F (1977)
Degree Days  
Heating Degree Days 22    
Moisture  
Dew Point 37 °F    
Average Humidity 83    
Maximum Humidity 100    
Minimum Humidity 62    
Precipitation  
Precipitation 0.02 in - - ()
Sea Level Pressure  
Sea Level Pressure 29.75 in    
Wind  
Wind Speed 10 mph (WSW)    
Max Wind Speed 17 mph    
Max Gust Speed 24 mph    
Visibility 10 miles    
Events Rain    
Averages and records for this station are not official NWS values.
T = Trace of Precipitation, MM = Missing Value Source: NWS Daily Summary

Daily Weather History Graph

Daily Weather History Graph

Search for Another Location

Airport or City:

Trip Planner

Search our weather history database for the weather conditions in past years. The results will help you decide how hot, cold, wet, or windy it might be!

Date:

Astronomy

Jan. 11, 2014 Rise Set
Actual Time 7:09 AM CST 4:55 PM CST
Civil Twilight 6:40 AM CST 5:24 PM CST
Nautical Twilight 6:08 AM CST 5:56 PM CST
Astronomical Twilight 5:36 AM CST 6:28 PM CST
Moon 1:38 PM CST (1/11) 3:15 AM CST (1/11)
Length of Visible Light 10h 43m
Length of Day
9h 45m
Waxing Gibbous, 83% of the Moon is Illuminated
Jan 11
Waxing Gibbous
Jan 15
Full
Jan 23
Last Quarter
Jan 30
New
Feb 6
First Quarter

Hourly Weather History & Observations

Time (CST) Temp. Windchill Dew Point Humidity Pressure Visibility Wind Dir Wind Speed Gust Speed Precip Events Conditions
12:15 AM 48.7 °F - 48.4 °F 99% 29.63 in 10.0 mi SW 9.2 mph - N/A   Overcast
12:35 AM 49.8 °F - 49.5 °F 99% 29.60 in 10.0 mi South 9.2 mph 16.1 mph 0.01 in Rain Rain
12:55 AM 49.5 °F - 49.3 °F 99% 29.59 in 10.0 mi SSW 10.4 mph 17.3 mph 0.01 in   Light Drizzle
1:15 AM 49.6 °F - 49.6 °F 100% 29.58 in 10.0 mi South 10.4 mph - N/A Rain Light Rain
1:35 AM 49.6 °F - 49.6 °F 100% 29.57 in 10.0 mi South 9.2 mph - N/A   Mostly Cloudy
1:55 AM 47.8 °F - 47.8 °F 100% 29.58 in 10.0 mi SW 6.9 mph - 0.01 in   Overcast
2:15 AM 49.1 °F - 49.1 °F 100% 29.58 in 10.0 mi SW 9.2 mph - N/A   Overcast
2:35 AM 49.3 °F - 49.3 °F 100% 29.58 in 10.0 mi SW 10.4 mph - N/A   Overcast
2:55 AM 50.0 °F - 50.0 °F 100% 29.59 in 10.0 mi SW 11.5 mph - N/A   Overcast
3:15 AM 49.6 °F - 49.6 °F 100% 29.59 in 10.0 mi SW 12.7 mph 17.3 mph N/A   Overcast
3:35 AM 49.3 °F - 48.9 °F 99% 29.59 in 10.0 mi WSW 11.5 mph 17.3 mph N/A   Overcast
3:55 AM 48.7 °F - 48.4 °F 99% 29.59 in 10.0 mi WSW 9.2 mph - N/A   Overcast
4:15 AM 47.7 °F - 47.3 °F 99% 29.61 in 10.0 mi WSW 8.1 mph - N/A   Overcast
4:35 AM 47.3 °F - 47.3 °F 100% 29.60 in 10.0 mi WSW 8.1 mph - N/A   Mostly Cloudy
4:55 AM 47.3 °F - 46.8 °F 98% 29.61 in 10.0 mi WSW 12.7 mph 18.4 mph N/A   Scattered Clouds
5:15 AM 45.7 °F 40.2 °F 43.7 °F 93% 29.62 in 10.0 mi West 11.5 mph - N/A   Clear
5:35 AM 44.1 °F 39.0 °F 41.5 °F 91% 29.63 in 10.0 mi West 9.2 mph - N/A   Clear
5:55 AM 43.5 °F 37.9 °F 40.3 °F 88% 29.64 in 10.0 mi West 10.4 mph - N/A   Clear
6:15 AM 42.8 °F 35.1 °F 38.8 °F 86% 29.65 in 10.0 mi West 16.1 mph 24.2 mph N/A   Clear
6:35 AM 41.0 °F 33.1 °F 35.6 °F 81% 29.65 in 10.0 mi West 15.0 mph 21.9 mph N/A   Clear
6:55 AM 40.1 °F 31.6 °F 34.3 °F 80% 29.66 in 10.0 mi West 16.1 mph - N/A   Clear
7:15 AM 39.6 °F 31.7 °F 33.8 °F 80% 29.67 in 10.0 mi West 13.8 mph 20.7 mph N/A   Clear
7:35 AM 39.2 °F 30.5 °F 33.6 °F 80% 29.68 in 10.0 mi West 16.1 mph 20.7 mph N/A   Clear
7:55 AM 39.2 °F 31.2 °F 33.8 °F 81% 29.70 in 10.0 mi West 13.8 mph - N/A   Clear
8:15 AM 39.4 °F 31.4 °F 34.3 °F 82% 29.71 in 10.0 mi West 13.8 mph 17.3 mph N/A   Mostly Cloudy
8:35 AM 40.1 °F 32.0 °F 34.7 °F 81% 29.72 in 10.0 mi West 15.0 mph 18.4 mph N/A   Overcast
8:55 AM 40.3 °F 32.2 °F 35.1 °F 82% 29.73 in 10.0 mi West 15.0 mph 18.4 mph N/A   Scattered Clouds
9:15 AM 41.0 °F 32.8 °F 35.4 °F 81% 29.73 in 10.0 mi West 16.1 mph 19.6 mph N/A   Mostly Cloudy
9:35 AM 41.0 °F 33.5 °F 35.8 °F 82% 29.75 in 10.0 mi West 13.8 mph 17.3 mph N/A   Overcast
9:55 AM 41.0 °F 34.3 °F 35.6 °F 81% 29.76 in 10.0 mi West 11.5 mph - N/A   Overcast
10:15 AM 41.2 °F 33.7 °F 35.4 °F 80% 29.76 in 10.0 mi West 13.8 mph 18.4 mph N/A   Overcast
10:35 AM 41.0 °F 33.5 °F 36.0 °F 82% 29.77 in 10.0 mi West 13.8 mph 18.4 mph N/A   Overcast
10:55 AM 41.0 °F 32.5 °F 35.6 °F 81% 29.78 in 10.0 mi West 17.3 mph 20.7 mph N/A   Overcast
11:15 AM 41.0 °F 32.5 °F 35.6 °F 81% 29.78 in 10.0 mi West 17.3 mph 20.7 mph N/A   Overcast
11:35 AM 41.0 °F 34.3 °F 35.6 °F 81% 29.77 in 10.0 mi West 11.5 mph - N/A   Overcast
11:55 AM 40.5 °F 33.6 °F 35.6 °F 83% 29.76 in 10.0 mi West 11.5 mph - N/A   Overcast
12:15 PM 41.2 °F 35.0 °F 36.3 °F 83% 29.76 in 10.0 mi West 10.4 mph 16.1 mph N/A   Overcast
12:35 PM 41.2 °F 34.5 °F 35.8 °F 81% 29.76 in 10.0 mi West 11.5 mph - N/A   Overcast
12:55 PM 41.9 °F 35.4 °F 36.7 °F 82% 29.76 in 10.0 mi West 11.5 mph - N/A   Overcast
1:15 PM 42.8 °F 35.8 °F 36.3 °F 78% 29.75 in 10.0 mi West 13.8 mph - N/A   Mostly Cloudy
1:35 PM 43.7 °F 38.6 °F 37.0 °F 77% 29.76 in 10.0 mi West 9.2 mph - N/A   Scattered Clouds
1:55 PM 44.6 °F 39.2 °F 36.7 °F 74% 29.76 in 10.0 mi West 10.4 mph - N/A   Clear
2:15 PM 45.3 °F 39.7 °F 36.3 °F 71% 29.76 in 10.0 mi West 11.5 mph 18.4 mph N/A   Clear
2:35 PM 45.7 °F 39.8 °F 35.8 °F 68% 29.77 in 10.0 mi West 12.7 mph - N/A   Clear
2:55 PM 46.4 °F 41.1 °F 35.4 °F 66% 29.78 in 10.0 mi West 11.5 mph - N/A   Clear
3:15 PM 46.4 °F 40.4 °F 35.2 °F 65% 29.78 in 10.0 mi West 13.8 mph - N/A   Clear
3:35 PM 46.6 °F - 35.2 °F 65% 29.79 in 10.0 mi West 8.1 mph - N/A   Clear
3:55 PM 46.4 °F 42.4 °F 34.7 °F 64% 29.79 in 10.0 mi West 8.1 mph - N/A   Clear
4:15 PM 45.9 °F 42.3 °F 33.6 °F 62% 29.79 in 10.0 mi WSW 6.9 mph - N/A   Clear
4:35 PM 43.7 °F 39.7 °F 33.3 °F 67% 29.80 in 10.0 mi West 6.9 mph - N/A   Clear
4:55 PM 42.4 °F 39.6 °F 32.0 °F 67% 29.80 in 10.0 mi WSW 4.6 mph - N/A   Clear
5:15 PM 41.2 °F 39.2 °F 32.0 °F 70% 29.81 in 10.0 mi SW 3.5 mph - N/A   Mostly Cloudy
5:35 PM 41.0 °F 39.0 °F 31.6 °F 69% 29.81 in 10.0 mi WSW 3.5 mph - N/A   Scattered Clouds
5:55 PM 40.6 °F 38.6 °F 31.8 °F 71% 29.82 in 10.0 mi SW 3.5 mph - N/A   Mostly Cloudy
6:15 PM 39.9 °F 36.7 °F 31.5 °F 72% 29.84 in 10.0 mi SSW 4.6 mph - N/A   Scattered Clouds
6:35 PM 38.7 °F 34.3 °F 31.8 °F 76% 29.84 in 10.0 mi SW 5.8 mph - N/A   Clear
6:55 PM 39.2 °F 35.9 °F 32.5 °F 77% 29.85 in 10.0 mi SW 4.6 mph - N/A   Clear
7:15 PM 38.7 °F 35.2 °F 33.1 °F 80% 29.85 in 10.0 mi SW 4.6 mph - N/A   Clear
7:35 PM 38.1 °F 34.6 °F 33.1 °F 82% 29.86 in 10.0 mi SW 4.6 mph - N/A   Clear
7:55 PM 37.9 °F 34.4 °F 33.6 °F 84% 29.87 in 10.0 mi WSW 4.6 mph - N/A   Scattered Clouds
8:15 PM 37.8 °F 33.3 °F 33.1 °F 83% 29.88 in 10.0 mi WSW 5.8 mph - N/A   Clear
8:35 PM 39.4 °F 33.2 °F 34.2 °F 82% 29.89 in 10.0 mi WSW 9.2 mph - N/A   Clear
8:55 PM 39.7 °F 34.3 °F 34.2 °F 80% 29.90 in 10.0 mi WSW 8.1 mph - N/A   Clear
9:15 PM 39.4 °F 33.8 °F 34.2 °F 82% 29.91 in 10.0 mi WSW 8.1 mph - N/A   Clear
9:35 PM 40.1 °F 34.7 °F 33.1 °F 76% 29.92 in 10.0 mi West 8.1 mph - N/A   Clear
9:55 PM 38.5 °F 32.7 °F 32.0 °F 78% 29.94 in 10.0 mi West 8.1 mph - N/A   Clear
10:15 PM 36.7 °F 31.2 °F 31.3 °F 81% 29.94 in 10.0 mi West 6.9 mph - N/A   Clear
10:35 PM 35.8 °F 30.1 °F 31.1 °F 83% 29.94 in 10.0 mi West 6.9 mph - N/A   Clear
10:55 PM 37.2 °F 31.2 °F 31.1 °F 79% 29.94 in 10.0 mi West 8.1 mph - N/A   Clear
11:15 PM 36.1 °F 31.4 °F 30.7 °F 81% 29.94 in 10.0 mi West 5.8 mph - N/A   Clear
11:35 PM 35.2 °F 30.3 °F 30.2 °F 82% 29.95 in 10.0 mi West 5.8 mph - N/A   Clear
11:55 PM 34.9 °F 29.0 °F 30.2 °F 83% 29.94 in 10.0 mi West 6.9 mph - N/A   Clear